DW1563 Tacoma WA US current weather conditions

sailwx.info

Wind from 225 at 0 knots gusting 2

Air temperature 13.3° C
Dewpoint 10.1° C

Last reported at 2020-Aug-13 15:55 UTC.
Time now 2020-Aug-13 16:51 UTC

Location: N 47°16' W 122°29'.
View on Google Maps.

See reports from other nearby stations

  
Tides and Currents Weather Stations Pressure Air Temp Water Temp Dewpoint Dewpoint Depression Visibility Wind Speed Wind Dir Waves Ship Positions
date/time (UTC)wind fromknots sea level pressurealtimeterstation pressurevisibilityair tempwater tempwave heightnotes
2020-Aug-13 15:55 225 0 gusting 2 13.3
2020-Aug-13 15:45 13.3
2020-Aug-13 15:35 225 0 gusting 3 12.8
2020-Aug-13 15:25 12.8
2020-Aug-13 15:15 225 0 gusting 2 12.2
2020-Aug-13 15:05 225 0 gusting 2 12.2
2020-Aug-13 14:55 11.7
2020-Aug-13 14:45 225 1 gusting 3 11.7
2020-Aug-13 14:35 225 2 gusting 4 11.1
2020-Aug-13 14:25 225 1 gusting 4 11.1
2020-Aug-13 14:15 225 1 gusting 4 10.6
2020-Aug-13 14:05 225 1 gusting 2 10.6
2020-Aug-13 13:55 225 1 gusting 3 10.6
2020-Aug-13 13:45 225 1 gusting 3 10.6
2020-Aug-13 13:35 225 2 gusting 4 10.6
2020-Aug-13 13:25 225 2 gusting 4 10.6
2020-Aug-13 13:15 225 2 gusting 4 10.6
2020-Aug-13 13:05 225 2 gusting 5 10.6
2020-Aug-13 12:55 225 2 gusting 5 10.6
2020-Aug-13 12:45 225 2 gusting 5 10.6
2020-Aug-13 12:35 225 2 gusting 4 11.1
2020-Aug-13 12:25 225 1 gusting 3 11.1
2020-Aug-13 12:15 225 2 gusting 4 11.1
2020-Aug-13 12:05 225 2 gusting 4 11.1
2020-Aug-13 11:55 225 2 gusting 5 11.1
2020-Aug-13 11:45 225 2 gusting 4 11.1
2020-Aug-13 11:35 225 3 gusting 4 11.1
2020-Aug-13 11:25 225 2 gusting 4 11.1
2020-Aug-13 11:15 225 2 gusting 4 11.7
2020-Aug-13 11:05 225 2 gusting 4 11.7
2020-Aug-13 10:55 225 1 gusting 5 11.7
2020-Aug-13 10:45 225 2 gusting 5 11.7
2020-Aug-13 10:35 225 1 gusting 4 11.7
2020-Aug-13 10:25 225 1 gusting 3 11.7
2020-Aug-13 10:15 225 2 gusting 3 12.2
2020-Aug-13 10:05 225 1 gusting 3 12.2
2020-Aug-13 09:55 225 1 gusting 5 12.2
2020-Aug-13 09:45 225 2 gusting 4 12.2
2020-Aug-13 09:35 225 2 gusting 4 12.8
2020-Aug-13 09:25 225 2 gusting 4 12.8
2020-Aug-13 09:15 225 1 gusting 3 12.8
2020-Aug-13 09:05 225 0 gusting 4 12.8
2020-Aug-13 08:55 225 1 gusting 2 12.8
2020-Aug-13 08:45 225 1 gusting 2 12.8
2020-Aug-13 08:35 225 0 gusting 2 12.8
2020-Aug-13 08:25 225 1 gusting 3 13.3
2020-Aug-13 08:15 225 1 gusting 5 13.3
2020-Aug-13 08:05 225 1 gusting 2 13.3
2020-Aug-13 07:55 225 2 gusting 4 13.9
2020-Aug-13 07:45 225 2 gusting 5 13.9
2020-Aug-13 07:35 248 3 gusting 6 13.9
2020-Aug-13 07:25 248 3 gusting 6 13.9
2020-Aug-13 07:15 248 2 gusting 4 14.4
2020-Aug-13 07:05 248 2 gusting 6 14.4
2020-Aug-13 06:55 248 1 gusting 6 14.4
2020-Aug-13 06:45 248 2 gusting 6 14.4
2020-Aug-13 06:35 248 1 gusting 5 15.0
2020-Aug-13 06:25 248 3 gusting 6 15.0
2020-Aug-13 06:15 248 2 gusting 6 15.0
2020-Aug-13 06:05 248 2 gusting 6 15.6
2020-Aug-13 05:55 248 2 gusting 6 15.6
2020-Aug-13 05:45 248 3 gusting 6 15.6
2020-Aug-13 05:35 248 2 gusting 5 16.1
2020-Aug-13 05:25 248 3 gusting 6 16.1
2020-Aug-13 05:15 248 3 gusting 5 16.1
2020-Aug-13 05:05 338 1 gusting 4 16.7
2020-Aug-13 04:55 338 1 gusting 2 16.7
2020-Aug-13 04:45 023 0 gusting 2 16.1
2020-Aug-13 04:35 16.7
2020-Aug-13 04:25 16.7
2020-Aug-13 04:15 17.2
2020-Aug-13 04:05 17.2
2020-Aug-13 03:55 023 0 gusting 1 17.2
2020-Aug-13 03:45 023 0 gusting 3 17.2
2020-Aug-13 03:35 17.2
2020-Aug-13 03:25 17.8
2020-Aug-13 03:15 17.8
2020-Aug-13 03:05 17.8
2020-Aug-13 02:55 023 1 gusting 3 17.8
2020-Aug-13 02:45 023 1 gusting 3 18.3
2020-Aug-13 02:35 18.3
2020-Aug-13 02:25 023 0 gusting 2 18.3
2020-Aug-13 02:15 023 0 gusting 4 18.9
2020-Aug-13 02:05 023 1 gusting 3 18.9
2020-Aug-13 01:55 023 1 gusting 4 18.9
2020-Aug-13 01:45 023 2 gusting 4 19.4
2020-Aug-13 01:35 023 0 gusting 2 19.4
2020-Aug-13 01:25 023 2 gusting 5 19.4
2020-Aug-13 01:15 023 2 gusting 5 19.4
2020-Aug-13 01:05 023 2 gusting 5 19.4
2020-Aug-13 00:55 023 2 gusting 4 19.4
2020-Aug-13 00:45 023 2 gusting 4 19.4
2020-Aug-13 00:35 023 3 gusting 6 19.4
2020-Aug-13 00:25 023 1 gusting 4 19.4
2020-Aug-13 00:15 023 3 gusting 6 19.4
2020-Aug-13 00:05 045 3 gusting 6 19.4
2020-Aug-12 23:55 023 3 gusting 5 19.4
2020-Aug-12 23:45 023 3 gusting 5 18.9
2020-Aug-12 23:35 023 3 gusting 5 18.9
2020-Aug-12 23:25 023 2 gusting 5 19.4
2020-Aug-12 23:15 023 3 gusting 6 19.4
2020-Aug-12 23:05 023 2 gusting 6 19.4
2020-Aug-12 22:55 023 4 gusting 6 18.9
2020-Aug-12 22:45 023 5 gusting 8 18.9
2020-Aug-12 22:35 045 4 gusting 6 18.9
2020-Aug-12 22:25 023 4 gusting 6 18.9
2020-Aug-12 22:15 023 3 gusting 6 18.3
2020-Aug-12 22:05 045 3 gusting 6 18.3
2020-Aug-12 21:55 023 2 gusting 5 18.3
2020-Aug-12 21:45 023 2 gusting 4 17.2
2020-Aug-12 21:35 023 3 gusting 5 17.8
2020-Aug-12 21:25 023 3 gusting 5 17.8
2020-Aug-12 21:15 023 2 gusting 6 18.3
2020-Aug-12 21:05 023 3 gusting 6 18.3
2020-Aug-12 20:55 045 3 gusting 6 18.3
2020-Aug-12 20:45 045 2 gusting 5 17.8
2020-Aug-12 20:35 045 2 gusting 6 18.3
2020-Aug-12 20:25 023 2 gusting 4 18.3
2020-Aug-12 20:15 045 3 gusting 6 17.2
2020-Aug-12 20:05 045 2 gusting 5 17.2
2020-Aug-12 19:55 045 1 gusting 2 17.2
2020-Aug-12 19:45 045 2 gusting 5 16.7
2020-Aug-12 19:35 158 0 gusting 4 17.2
2020-Aug-12 19:25 225 1 gusting 4 17.2
2020-Aug-12 19:15 248 0 gusting 3 17.2
2020-Aug-12 19:05 293 2 gusting 5 17.8
2020-Aug-12 18:55 293 1 gusting 6 16.7
2020-Aug-12 18:45 225 2 gusting 6 16.1
2020-Aug-12 18:35 315 3 gusting 6 15.6
2020-Aug-12 18:25 225 2 gusting 6 15.0
2020-Aug-12 18:15 225 3 gusting 7 15.0
2020-Aug-12 18:05 225 2 gusting 5 14.4
2020-Aug-12 17:55 248 5 gusting 7 14.4
2020-Aug-12 17:45 248 4 gusting 8 14.4
2020-Aug-12 17:35 203 3 gusting 6 14.4
2020-Aug-12 17:25 225 5 gusting 10 14.4
2020-Aug-12 17:15 225 3 gusting 6 13.9
2020-Aug-12 17:05 203 4 gusting 9 13.9
2020-Aug-12 16:55 248 2 gusting 6 13.9
2020-Aug-12 16:45 248 3 gusting 7 13.3
2020-Aug-12 16:35 248 2 gusting 8 13.3
2020-Aug-12 16:25 270 2 gusting 6 13.3
2020-Aug-12 16:15 270 2 gusting 5 13.3
2020-Aug-12 16:05 248 1 gusting 3 13.3
2020-Aug-12 15:55 248 1 gusting 6 13.3
2020-Aug-12 15:45 248 2 gusting 5 13.3
2020-Aug-12 15:35 225 3 gusting 6 12.8
2020-Aug-12 15:25 225 1 gusting 4 12.8
2020-Aug-12 15:15 225 2 gusting 5 12.8
2020-Aug-12 15:05 225 3 gusting 6 12.8
2020-Aug-12 14:55 180 1 gusting 5 12.8
2020-Aug-12 14:45 180 1 gusting 3 12.8
2020-Aug-12 14:35 180 1 gusting 4 12.8
2020-Aug-12 14:25 180 0 gusting 3 12.8
2020-Aug-12 14:15 180 0 gusting 4 12.8
2020-Aug-12 14:05 180 0 gusting 3 12.8
2020-Aug-12 13:55 180 0 gusting 2 12.2
2020-Aug-12 13:45 12.2
2020-Aug-12 13:35 12.2
2020-Aug-12 13:25 12.2
2020-Aug-12 13:15 12.2
2020-Aug-12 13:05 12.2
2020-Aug-12 12:55 12.2
2020-Aug-12 12:45 12.2
2020-Aug-12 12:35 12.2
2020-Aug-12 12:25 12.2
2020-Aug-12 12:15 12.2
2020-Aug-12 12:05 11.7
2020-Aug-12 11:55 11.7
2020-Aug-12 11:45 180 0 gusting 1 11.7
2020-Aug-12 11:35 180 0 gusting 2 11.7
2020-Aug-12 11:25 180 0 gusting 1 11.7
2020-Aug-12 11:15 180 1 gusting 3 11.7
2020-Aug-12 11:05 180 1 gusting 4 11.7
2020-Aug-12 10:55 180 1 gusting 2 11.7
2020-Aug-12 10:45 180 1 gusting 4 11.7
2020-Aug-12 10:35 180 1 gusting 4 11.7
2020-Aug-12 10:25 180 0 gusting 2 11.7
2020-Aug-12 10:15 180 1 gusting 3 11.7
2020-Aug-12 10:05 180 1 gusting 3 11.7
2020-Aug-12 09:55 180 0 gusting 2 11.7
2020-Aug-12 09:45 180 1 gusting 4 11.7
2020-Aug-12 09:35 180 1 gusting 4 12.2
2020-Aug-12 09:25 180 1 gusting 4 12.2
2020-Aug-12 09:15 180 1 gusting 4 12.2
2020-Aug-12 09:05 180 1 gusting 4 12.2
2020-Aug-12 08:55 180 1 gusting 5 12.2
2020-Aug-12 08:45 180 1 gusting 3 12.2
2020-Aug-12 08:35 180 1 gusting 3 12.2
2020-Aug-12 08:25 180 2 gusting 3 12.8
2020-Aug-12 08:15 180 1 gusting 3 12.8
2020-Aug-12 08:05 180 1 gusting 5 12.8
2020-Aug-12 07:55 203 2 gusting 5 12.8
2020-Aug-12 07:45 203 2 gusting 4 12.8
2020-Aug-12 07:35 203 2 gusting 5 13.3
2020-Aug-12 07:25 248 3 gusting 6 13.3
2020-Aug-12 07:15 248 1 gusting 3 13.3
2020-Aug-12 07:05 248 1 gusting 2 13.3
2020-Aug-12 06:55 248 0 gusting 1 13.9
2020-Aug-12 06:45 248 1 gusting 3 13.9
2020-Aug-12 06:35 248 1 gusting 3 13.9
2020-Aug-12 06:25 248 0 gusting 3 14.4
2020-Aug-12 06:15 248 1 gusting 5 14.4
2020-Aug-12 06:05 248 0 gusting 3 14.4
2020-Aug-12 05:55 248 3 gusting 6 14.4
2020-Aug-12 05:45 248 3 gusting 7 15.0
2020-Aug-12 05:35 203 3 gusting 6 15.0
2020-Aug-12 05:25 225 4 gusting 7 15.6
2020-Aug-12 05:15 248 4 gusting 9 15.6
2020-Aug-12 05:05 225 6 gusting 12 15.6
2020-Aug-12 04:55 225 5 gusting 12 15.6
2020-Aug-12 04:45 225 6 gusting 12 16.1
2020-Aug-12 04:35 225 6 gusting 10 16.1
2020-Aug-12 04:25 225 6 gusting 15 16.1
2020-Aug-12 04:15 225 4 gusting 8 16.7
2020-Aug-12 04:05 225 6 gusting 13 16.7
2020-Aug-12 03:55 225 6 gusting 14 16.7
2020-Aug-12 03:45 225 6 gusting 12 16.7
2020-Aug-12 03:35 225 6 gusting 11 17.2
2020-Aug-12 03:25 225 6 gusting 12 17.2
2020-Aug-12 03:15 225 6 gusting 13 17.2
2020-Aug-12 03:05 248 6 gusting 14 17.8
2020-Aug-12 02:55 225 4 gusting 11 17.8
2020-Aug-12 02:45 225 7 gusting 15 17.8
2020-Aug-12 02:35 225 6 gusting 12 18.3
2020-Aug-12 02:25 225 6 gusting 13 18.3
2020-Aug-12 02:15 225 6 gusting 14 18.9
2020-Aug-12 02:05 225 6 gusting 13 18.9
2020-Aug-12 01:55 248 5 gusting 11 18.9
2020-Aug-12 01:45 225 6 gusting 13 18.9
2020-Aug-12 01:35 225 6 gusting 15 19.4
2020-Aug-12 01:25 225 6 gusting 13 19.4
2020-Aug-12 01:15 225 5 gusting 11 20.0
2020-Aug-12 01:05 225 6 gusting 15 20.0
2020-Aug-12 00:55 225 5 gusting 10 20.0
2020-Aug-12 00:45 225 5 gusting 8 20.0
2020-Aug-12 00:35 225 7 gusting 13 20.6
2020-Aug-12 00:25 248 6 gusting 12 20.6
2020-Aug-12 00:15 248 7 gusting 13 21.1
2020-Aug-12 00:05 248 6 gusting 11 21.7
2020-Aug-11 23:55 248 6 gusting 12 21.7
2020-Aug-11 23:45 248 7 gusting 16 21.7
2020-Aug-11 23:35 270 6 gusting 14 22.2
2020-Aug-11 23:25 270 6 gusting 12 22.2
2020-Aug-11 23:15 225 3 gusting 7 22.2
2020-Aug-11 23:05 225 6 gusting 14 22.2
2020-Aug-11 22:55 270 6 gusting 11 22.2
2020-Aug-11 22:45 270 4 gusting 9 22.8
2020-Aug-11 22:35 225 6 gusting 10 22.2
2020-Aug-11 22:25 248 6 gusting 13 22.2
2020-Aug-11 22:15 248 4 gusting 7 22.2
2020-Aug-11 22:05 225 5 gusting 12 21.7
2020-Aug-11 21:55 270 6 gusting 10 21.7
2020-Aug-11 21:45 225 4 gusting 10 21.1
2020-Aug-11 21:35 225 6 gusting 13 21.1
2020-Aug-11 21:25 270 6 gusting 12 21.1
2020-Aug-11 21:15 225 5 gusting 10 21.1
2020-Aug-11 21:05 225 6 gusting 12 21.1
2020-Aug-11 20:55 248 4 gusting 8 21.1
2020-Aug-11 20:45 270 6 gusting 14 20.6
2020-Aug-11 20:35 225 4 gusting 8 20.0
2020-Aug-11 20:25 248 6 gusting 13 20.0
2020-Aug-11 20:15 225 6 gusting 9 19.4
2020-Aug-11 20:05 225 3 gusting 8 19.4
2020-Aug-11 19:55 225 6 gusting 12 18.3
2020-Aug-11 19:45 248 6 gusting 12 18.3
2020-Aug-11 19:35 270 5 gusting 9 17.8
2020-Aug-11 19:25 248 6 gusting 13 17.8
2020-Aug-11 19:15 225 5 gusting 12 17.2
2020-Aug-11 19:05 248 6 gusting 11 16.7
2020-Aug-11 18:55 225 6 gusting 11 16.7
2020-Aug-11 18:45 270 5 gusting 8 16.7
2020-Aug-11 18:35 225 5 gusting 9 15.6
2020-Aug-11 18:25 225 6 gusting 13 15.6
2020-Aug-11 18:15 248 6 gusting 12 15.6
2020-Aug-11 18:05 248 4 gusting 11 15.6
2020-Aug-11 17:55 248 4 gusting 11 15.0
2020-Aug-11 17:45 203 6 gusting 11 15.0
2020-Aug-11 17:35 270 6 gusting 13 14.4
2020-Aug-11 17:25 248 6 gusting 13 14.4
2020-Aug-11 17:15 203 4 gusting 8 13.9
2020-Aug-11 17:05 225 4 gusting 9 14.4
2020-Aug-11 16:55 225 6 gusting 12 13.9
2020-Aug-11 16:45 203 5 gusting 11 13.9
2020-Aug-11 16:35 225 6 gusting 13 13.3
2020-Aug-11 16:25 248 4 gusting 6 13.3
2020-Aug-11 16:15 225 4 gusting 10 13.3
2020-Aug-11 16:05 248 5 gusting 9 13.3